Retour au catalogue

FENGYUN 1C DEB

ActifSSO
NORAD 31890·DEBRIS·🇨🇳 China

Lancé May 10, 1999 depuis Taiyuan Satellite Launch Center

Loading…

Prochains Passages (prochaines 24 heures)

TLE

FraisSource: Space-Track

Époque: Sep 13, 2026, 05:54 UTC

1 31890U 99025CKR 26256.24641772  .00000169  00000-0  11637-3 0  9997
2 31890  98.7151 264.3373 0072282 183.6138 176.4520 14.10242304680216

Suivez FENGYUN 1C DEB en temps réel avec AllMySat

Download on the App Store